Index of /20260503/WXO-DD/model_rdps/10km/00/063
Name Last modified Size Description
Parent Directory -
20260503T00Z_MSC_RDPS_AbsoluteVorticity_IsbL-0250_RLatLon0.09_PT063H.grib2 2026-05-03 02:59 604K
20260503T00Z_MSC_RDPS_AbsoluteVorticity_IsbL-0500_RLatLon0.09_PT063H.grib2 2026-05-03 02:59 688K
20260503T00Z_MSC_RDPS_AbsoluteVorticity_IsbL-0700_RLatLon0.09_PT063H.grib2 2026-05-03 02:59 611K
20260503T00Z_MSC_RDPS_AbsoluteVorticity_IsbL-0850_RLatLon0.09_PT063H.grib2 2026-05-03 02:59 797K
20260503T00Z_MSC_RDPS_AirTemp_AGL-120m_RLatLon0.09_PT063H.grib2 2026-05-03 02:59 382K
20260503T00Z_MSC_RDPS_AirTemp_AGL-2m_RLatLon0.09_PT063H.grib2 2026-05-03 02:59 635K
20260503T00Z_MSC_RDPS_AirTemp_AGL-40m_RLatLon0.09_PT063H.grib2 2026-05-03 02:59 393K
20260503T00Z_MSC_RDPS_AirTemp_AGL-80m_RLatLon0.09_PT063H.grib2 2026-05-03 02:59 387K
20260503T00Z_MSC_RDPS_AirTemp_IsbL-0001_RLatLon0.09_PT063H.grib2 2026-05-03 02:59 324K
20260503T00Z_MSC_RDPS_AirTemp_IsbL-0005_RLatLon0.09_PT063H.grib2 2026-05-03 02:59 291K
20260503T00Z_MSC_RDPS_AirTemp_IsbL-0010_RLatLon0.09_PT063H.grib2 2026-05-03 02:59 394K
20260503T00Z_MSC_RDPS_AirTemp_IsbL-0020_RLatLon0.09_PT063H.grib2 2026-05-03 02:59 414K
20260503T00Z_MSC_RDPS_AirTemp_IsbL-0030_RLatLon0.09_PT063H.grib2 2026-05-03 02:59 338K
20260503T00Z_MSC_RDPS_AirTemp_IsbL-0050_RLatLon0.09_PT063H.grib2 2026-05-03 02:59 318K
20260503T00Z_MSC_RDPS_AirTemp_IsbL-0100_RLatLon0.09_PT063H.grib2 2026-05-03 02:59 430K
20260503T00Z_MSC_RDPS_AirTemp_IsbL-0150_RLatLon0.09_PT063H.grib2 2026-05-03 02:59 420K
20260503T00Z_MSC_RDPS_AirTemp_IsbL-0175_RLatLon0.09_PT063H.grib2 2026-05-03 02:59 410K
20260503T00Z_MSC_RDPS_AirTemp_IsbL-0200_RLatLon0.09_PT063H.grib2 2026-05-03 02:59 412K
20260503T00Z_MSC_RDPS_AirTemp_IsbL-0225_RLatLon0.09_PT063H.grib2 2026-05-03 02:59 412K
20260503T00Z_MSC_RDPS_AirTemp_IsbL-0250_RLatLon0.09_PT063H.grib2 2026-05-03 02:59 417K
20260503T00Z_MSC_RDPS_AirTemp_IsbL-0275_RLatLon0.09_PT063H.grib2 2026-05-03 02:59 401K
20260503T00Z_MSC_RDPS_AirTemp_IsbL-0300_RLatLon0.09_PT063H.grib2 2026-05-03 02:59 410K
20260503T00Z_MSC_RDPS_AirTemp_IsbL-0350_RLatLon0.09_PT063H.grib2 2026-05-03 02:59 426K
20260503T00Z_MSC_RDPS_AirTemp_IsbL-0400_RLatLon0.09_PT063H.grib2 2026-05-03 02:59 429K
20260503T00Z_MSC_RDPS_AirTemp_IsbL-0450_RLatLon0.09_PT063H.grib2 2026-05-03 02:59 435K
20260503T00Z_MSC_RDPS_AirTemp_IsbL-0500_RLatLon0.09_PT063H.grib2 2026-05-03 02:59 444K
20260503T00Z_MSC_RDPS_AirTemp_IsbL-0550_RLatLon0.09_PT063H.grib2 2026-05-03 02:59 461K
20260503T00Z_MSC_RDPS_AirTemp_IsbL-0600_RLatLon0.09_PT063H.grib2 2026-05-03 02:59 440K
20260503T00Z_MSC_RDPS_AirTemp_IsbL-0650_RLatLon0.09_PT063H.grib2 2026-05-03 02:59 458K
20260503T00Z_MSC_RDPS_AirTemp_IsbL-0700_RLatLon0.09_PT063H.grib2 2026-05-03 02:59 483K
20260503T00Z_MSC_RDPS_AirTemp_IsbL-0750_RLatLon0.09_PT063H.grib2 2026-05-03 02:59 525K
20260503T00Z_MSC_RDPS_AirTemp_IsbL-0800_RLatLon0.09_PT063H.grib2 2026-05-03 02:59 583K
20260503T00Z_MSC_RDPS_AirTemp_IsbL-0850_RLatLon0.09_PT063H.grib2 2026-05-03 02:59 645K
20260503T00Z_MSC_RDPS_AirTemp_IsbL-0875_RLatLon0.09_PT063H.grib2 2026-05-03 02:59 666K
20260503T00Z_MSC_RDPS_AirTemp_IsbL-0900_RLatLon0.09_PT063H.grib2 2026-05-03 02:59 542K
20260503T00Z_MSC_RDPS_AirTemp_IsbL-0925_RLatLon0.09_PT063H.grib2 2026-05-03 02:59 670K
20260503T00Z_MSC_RDPS_AirTemp_IsbL-0950_RLatLon0.09_PT063H.grib2 2026-05-03 02:59 534K
20260503T00Z_MSC_RDPS_AirTemp_IsbL-0970_RLatLon0.09_PT063H.grib2 2026-05-03 02:59 527K
20260503T00Z_MSC_RDPS_AirTemp_IsbL-0985_RLatLon0.09_PT063H.grib2 2026-05-03 02:59 516K
20260503T00Z_MSC_RDPS_AirTemp_IsbL-1000_RLatLon0.09_PT063H.grib2 2026-05-03 02:59 502K
20260503T00Z_MSC_RDPS_AirTemp_IsbL-1015_RLatLon0.09_PT063H.grib2 2026-05-03 02:59 508K
20260503T00Z_MSC_RDPS_Albedo_Sfc_RLatLon0.09_PT063H.grib2 2026-05-03 02:59 158K
20260503T00Z_MSC_RDPS_CAPE_Sfc_RLatLon0.09_PT063H.grib2 2026-05-03 02:59 1.8M
20260503T00Z_MSC_RDPS_CIN_Sfc_RLatLon0.09_PT063H.grib2 2026-05-03 02:59 1.1M
20260503T00Z_MSC_RDPS_CloudWater_EAtm_RLatLon0.09_PT063H.grib2 2026-05-03 02:59 222K
20260503T00Z_MSC_RDPS_ConvectivePrecip-Accum_Sfc_RLatLon0.09_PT063H.grib2 2026-05-03 02:59 1.2M
20260503T00Z_MSC_RDPS_DewPointDepression_AGL-2m_RLatLon0.09_PT063H.grib2 2026-05-03 02:59 419K
20260503T00Z_MSC_RDPS_DewPointDepression_IsbL-0001_RLatLon0.09_PT063H.grib2 2026-05-03 02:59 193
20260503T00Z_MSC_RDPS_DewPointDepression_IsbL-0005_RLatLon0.09_PT063H.grib2 2026-05-03 02:59 193
20260503T00Z_MSC_RDPS_DewPointDepression_IsbL-0010_RLatLon0.09_PT063H.grib2 2026-05-03 02:59 193
20260503T00Z_MSC_RDPS_DewPointDepression_IsbL-0020_RLatLon0.09_PT063H.grib2 2026-05-03 02:59 193
20260503T00Z_MSC_RDPS_DewPointDepression_IsbL-0030_RLatLon0.09_PT063H.grib2 2026-05-03 02:59 193
20260503T00Z_MSC_RDPS_DewPointDepression_IsbL-0050_RLatLon0.09_PT063H.grib2 2026-05-03 02:59 106K
20260503T00Z_MSC_RDPS_DewPointDepression_IsbL-0100_RLatLon0.09_PT063H.grib2 2026-05-03 02:59 114K
20260503T00Z_MSC_RDPS_DewPointDepression_IsbL-0150_RLatLon0.09_PT063H.grib2 2026-05-03 02:59 142K
20260503T00Z_MSC_RDPS_DewPointDepression_IsbL-0175_RLatLon0.09_PT063H.grib2 2026-05-03 02:59 177K
20260503T00Z_MSC_RDPS_DewPointDepression_IsbL-0200_RLatLon0.09_PT063H.grib2 2026-05-03 02:59 217K
20260503T00Z_MSC_RDPS_DewPointDepression_IsbL-0225_RLatLon0.09_PT063H.grib2 2026-05-03 02:59 252K
20260503T00Z_MSC_RDPS_DewPointDepression_IsbL-0250_RLatLon0.09_PT063H.grib2 2026-05-03 02:59 291K
20260503T00Z_MSC_RDPS_DewPointDepression_IsbL-0275_RLatLon0.09_PT063H.grib2 2026-05-03 02:59 302K
20260503T00Z_MSC_RDPS_DewPointDepression_IsbL-0300_RLatLon0.09_PT063H.grib2 2026-05-03 02:59 320K
20260503T00Z_MSC_RDPS_DewPointDepression_IsbL-0350_RLatLon0.09_PT063H.grib2 2026-05-03 02:59 326K
20260503T00Z_MSC_RDPS_DewPointDepression_IsbL-0400_RLatLon0.09_PT063H.grib2 2026-05-03 02:59 335K
20260503T00Z_MSC_RDPS_DewPointDepression_IsbL-0450_RLatLon0.09_PT063H.grib2 2026-05-03 02:59 340K
20260503T00Z_MSC_RDPS_DewPointDepression_IsbL-0500_RLatLon0.09_PT063H.grib2 2026-05-03 02:59 344K
20260503T00Z_MSC_RDPS_DewPointDepression_IsbL-0550_RLatLon0.09_PT063H.grib2 2026-05-03 02:59 355K
20260503T00Z_MSC_RDPS_DewPointDepression_IsbL-0600_RLatLon0.09_PT063H.grib2 2026-05-03 02:59 362K
20260503T00Z_MSC_RDPS_DewPointDepression_IsbL-0650_RLatLon0.09_PT063H.grib2 2026-05-03 02:59 370K
20260503T00Z_MSC_RDPS_DewPointDepression_IsbL-0700_RLatLon0.09_PT063H.grib2 2026-05-03 02:59 384K
20260503T00Z_MSC_RDPS_DewPointDepression_IsbL-0750_RLatLon0.09_PT063H.grib2 2026-05-03 02:59 406K
20260503T00Z_MSC_RDPS_DewPointDepression_IsbL-0800_RLatLon0.09_PT063H.grib2 2026-05-03 02:59 442K
20260503T00Z_MSC_RDPS_DewPointDepression_IsbL-0850_RLatLon0.09_PT063H.grib2 2026-05-03 02:59 477K
20260503T00Z_MSC_RDPS_DewPointDepression_IsbL-0875_RLatLon0.09_PT063H.grib2 2026-05-03 02:59 477K
20260503T00Z_MSC_RDPS_DewPointDepression_IsbL-0900_RLatLon0.09_PT063H.grib2 2026-05-03 02:59 467K
20260503T00Z_MSC_RDPS_DewPointDepression_IsbL-0925_RLatLon0.09_PT063H.grib2 2026-05-03 02:59 454K
20260503T00Z_MSC_RDPS_DewPointDepression_IsbL-0950_RLatLon0.09_PT063H.grib2 2026-05-03 02:59 446K
20260503T00Z_MSC_RDPS_DewPointDepression_IsbL-0970_RLatLon0.09_PT063H.grib2 2026-05-03 02:59 443K
20260503T00Z_MSC_RDPS_DewPointDepression_IsbL-0985_RLatLon0.09_PT063H.grib2 2026-05-03 02:59 442K
20260503T00Z_MSC_RDPS_DewPointDepression_IsbL-1000_RLatLon0.09_PT063H.grib2 2026-05-03 02:59 439K
20260503T00Z_MSC_RDPS_DewPointDepression_IsbL-1015_RLatLon0.09_PT063H.grib2 2026-05-03 02:59 432K
20260503T00Z_MSC_RDPS_DewPoint_AGL-2m_RLatLon0.09_PT063H.grib2 2026-05-03 02:59 399K
20260503T00Z_MSC_RDPS_DownwardLongwaveRadiationFlux-Accum_Sfc_RLatLon0.09_PT063H.grib2 2026-05-03 02:59 412K
20260503T00Z_MSC_RDPS_DownwardShortwaveRadiationFlux-Accum_NTAtm_RLatLon0.09_PT063H.grib2 2026-05-03 02:59 157K
20260503T00Z_MSC_RDPS_DownwardShortwaveRadiationFlux-Accum_Sfc_RLatLon0.09_PT063H.grib2 2026-05-03 02:59 594K
20260503T00Z_MSC_RDPS_FreezingRain-Accum1h_Sfc_RLatLon0.09_PT063H.grib2 2026-05-03 02:59 39K
20260503T00Z_MSC_RDPS_FreezingRain-Accum3h_Sfc_RLatLon0.09_PT063H.grib2 2026-05-03 02:59 54K
20260503T00Z_MSC_RDPS_FreezingRain-Accum_Sfc_RLatLon0.09_PT063H.grib2 2026-05-03 02:59 193K
20260503T00Z_MSC_RDPS_GeopotentialHeight_IsbL-0001_RLatLon0.09_PT063H.grib2 2026-05-03 02:59 355K
20260503T00Z_MSC_RDPS_GeopotentialHeight_IsbL-0005_RLatLon0.09_PT063H.grib2 2026-05-03 02:59 311K
20260503T00Z_MSC_RDPS_GeopotentialHeight_IsbL-0010_RLatLon0.09_PT063H.grib2 2026-05-03 02:59 311K
20260503T00Z_MSC_RDPS_GeopotentialHeight_IsbL-0020_RLatLon0.09_PT063H.grib2 2026-05-03 02:59 410K
20260503T00Z_MSC_RDPS_GeopotentialHeight_IsbL-0030_RLatLon0.09_PT063H.grib2 2026-05-03 02:59 411K
20260503T00Z_MSC_RDPS_GeopotentialHeight_IsbL-0050_RLatLon0.09_PT063H.grib2 2026-05-03 02:59 314K
20260503T00Z_MSC_RDPS_GeopotentialHeight_IsbL-0100_RLatLon0.09_PT063H.grib2 2026-05-03 02:59 288K
20260503T00Z_MSC_RDPS_GeopotentialHeight_IsbL-0150_RLatLon0.09_PT063H.grib2 2026-05-03 02:59 230K
20260503T00Z_MSC_RDPS_GeopotentialHeight_IsbL-0175_RLatLon0.09_PT063H.grib2 2026-05-03 02:59 232K
20260503T00Z_MSC_RDPS_GeopotentialHeight_IsbL-0200_RLatLon0.09_PT063H.grib2 2026-05-03 02:59 236K
20260503T00Z_MSC_RDPS_GeopotentialHeight_IsbL-0225_RLatLon0.09_PT063H.grib2 2026-05-03 02:59 237K
20260503T00Z_MSC_RDPS_GeopotentialHeight_IsbL-0250_RLatLon0.09_PT063H.grib2 2026-05-03 02:59 238K
20260503T00Z_MSC_RDPS_GeopotentialHeight_IsbL-0275_RLatLon0.09_PT063H.grib2 2026-05-03 02:59 237K
20260503T00Z_MSC_RDPS_GeopotentialHeight_IsbL-0300_RLatLon0.09_PT063H.grib2 2026-05-03 02:59 236K
20260503T00Z_MSC_RDPS_GeopotentialHeight_IsbL-0350_RLatLon0.09_PT063H.grib2 2026-05-03 02:59 232K
20260503T00Z_MSC_RDPS_GeopotentialHeight_IsbL-0400_RLatLon0.09_PT063H.grib2 2026-05-03 02:59 229K
20260503T00Z_MSC_RDPS_GeopotentialHeight_IsbL-0450_RLatLon0.09_PT063H.grib2 2026-05-03 02:59 299K
20260503T00Z_MSC_RDPS_GeopotentialHeight_IsbL-0500_RLatLon0.09_PT063H.grib2 2026-05-03 02:59 296K
20260503T00Z_MSC_RDPS_GeopotentialHeight_IsbL-0550_RLatLon0.09_PT063H.grib2 2026-05-03 02:59 291K
20260503T00Z_MSC_RDPS_GeopotentialHeight_IsbL-0600_RLatLon0.09_PT063H.grib2 2026-05-03 02:59 288K
20260503T00Z_MSC_RDPS_GeopotentialHeight_IsbL-0650_RLatLon0.09_PT063H.grib2 2026-05-03 02:59 258K
20260503T00Z_MSC_RDPS_GeopotentialHeight_IsbL-0700_RLatLon0.09_PT063H.grib2 2026-05-03 02:59 257K
20260503T00Z_MSC_RDPS_GeopotentialHeight_IsbL-0750_RLatLon0.09_PT063H.grib2 2026-05-03 02:59 260K
20260503T00Z_MSC_RDPS_GeopotentialHeight_IsbL-0800_RLatLon0.09_PT063H.grib2 2026-05-03 02:59 354K
20260503T00Z_MSC_RDPS_GeopotentialHeight_IsbL-0850_RLatLon0.09_PT063H.grib2 2026-05-03 02:59 366K
20260503T00Z_MSC_RDPS_GeopotentialHeight_IsbL-0875_RLatLon0.09_PT063H.grib2 2026-05-03 02:59 368K
20260503T00Z_MSC_RDPS_GeopotentialHeight_IsbL-0900_RLatLon0.09_PT063H.grib2 2026-05-03 02:59 282K
20260503T00Z_MSC_RDPS_GeopotentialHeight_IsbL-0925_RLatLon0.09_PT063H.grib2 2026-05-03 02:59 284K
20260503T00Z_MSC_RDPS_GeopotentialHeight_IsbL-0950_RLatLon0.09_PT063H.grib2 2026-05-03 02:59 287K
20260503T00Z_MSC_RDPS_GeopotentialHeight_IsbL-0970_RLatLon0.09_PT063H.grib2 2026-05-03 02:59 291K
20260503T00Z_MSC_RDPS_GeopotentialHeight_IsbL-0985_RLatLon0.09_PT063H.grib2 2026-05-03 02:59 298K
20260503T00Z_MSC_RDPS_GeopotentialHeight_IsbL-1000_RLatLon0.09_PT063H.grib2 2026-05-03 02:59 307K
20260503T00Z_MSC_RDPS_GeopotentialHeight_IsbL-1015_RLatLon0.09_PT063H.grib2 2026-05-03 02:59 321K
20260503T00Z_MSC_RDPS_Humidex_Sfc_RLatLon0.09_PT063H.grib2 2026-05-03 02:59 2.4M
20260503T00Z_MSC_RDPS_IcePellets-Accum1h_Sfc_RLatLon0.09_PT063H.grib2 2026-05-03 02:59 11K
20260503T00Z_MSC_RDPS_IcePellets-Accum3h_Sfc_RLatLon0.09_PT063H.grib2 2026-05-03 02:59 12K
20260503T00Z_MSC_RDPS_IcePellets-Accum_Sfc_RLatLon0.09_PT063H.grib2 2026-05-03 02:59 37K
20260503T00Z_MSC_RDPS_KIndex_Sfc_RLatLon0.09_PT063H.grib2 2026-05-03 02:59 2.5M
20260503T00Z_MSC_RDPS_LatentHeatNetFlux_Sfc_RLatLon0.09_PT063H.grib2 2026-05-03 02:59 390K
20260503T00Z_MSC_RDPS_LiftedIndex-MU-VT_IsbL-0500_RLatLon0.09_PT063H.grib2 2026-05-03 02:59 2.4M
20260503T00Z_MSC_RDPS_NetLongwaveRadiationFlux-Accum_Sfc_RLatLon0.09_PT063H.grib2 2026-05-03 02:59 592K
20260503T00Z_MSC_RDPS_NetShortwaveRadiationFlux-Accum_Sfc_RLatLon0.09_PT063H.grib2 2026-05-03 02:59 594K
20260503T00Z_MSC_RDPS_PlanetaryBoundaryLayerHeight_Sfc_RLatLon0.09_PT063H.grib2 2026-05-03 02:59 1.0M
20260503T00Z_MSC_RDPS_Precip-Accum1h_Sfc_RLatLon0.09_PT063H.grib2 2026-05-03 02:59 1.4M
20260503T00Z_MSC_RDPS_Precip-Accum3h_Sfc_RLatLon0.09_PT063H.grib2 2026-05-03 02:59 1.5M
20260503T00Z_MSC_RDPS_Precip-Accum_Sfc_RLatLon0.09_PT063H.grib2 2026-05-03 02:59 2.2M
20260503T00Z_MSC_RDPS_PrecipRate_Sfc_RLatLon0.09_PT063H.grib2 2026-05-03 02:59 253K
20260503T00Z_MSC_RDPS_PrecipType-Instant_Sfc_RLatLon0.09_PT063H.grib2 2026-05-03 02:59 603K
20260503T00Z_MSC_RDPS_Pressure-Trend3h_Sfc_RLatLon0.09_PT063H.grib2 2026-05-03 02:59 1.2M
20260503T00Z_MSC_RDPS_Pressure_MSL_RLatLon0.09_PT063H.grib2 2026-05-03 02:59 331K
20260503T00Z_MSC_RDPS_Pressure_PVU-1.5_RLatLon0.09_PT063H.grib2 2026-05-03 02:59 2.5M
20260503T00Z_MSC_RDPS_Pressure_PVU-1_RLatLon0.09_PT063H.grib2 2026-05-03 02:59 2.4M
20260503T00Z_MSC_RDPS_Pressure_PVU-2_RLatLon0.09_PT063H.grib2 2026-05-03 02:59 2.4M
20260503T00Z_MSC_RDPS_Pressure_Sfc_RLatLon0.09_PT063H.grib2 2026-05-03 02:59 500K
20260503T00Z_MSC_RDPS_RadiativeTemp_Sfc_RLatLon0.09_PT063H.grib2 2026-05-03 02:59 310K
20260503T00Z_MSC_RDPS_Rain-Accum1h_Sfc_RLatLon0.09_PT063H.grib2 2026-05-03 02:59 695K
20260503T00Z_MSC_RDPS_Rain-Accum3h_Sfc_RLatLon0.09_PT063H.grib2 2026-05-03 02:59 875K
20260503T00Z_MSC_RDPS_Rain-Accum_Sfc_RLatLon0.09_PT063H.grib2 2026-05-03 02:59 1.8M
20260503T00Z_MSC_RDPS_RelativeHumidity_AGL-2m_RLatLon0.09_PT063H.grib2 2026-05-03 02:59 1.0M
20260503T00Z_MSC_RDPS_RelativeHumidity_IsbL-0010_RLatLon0.09_PT063H.grib2 2026-05-03 02:59 695K
20260503T00Z_MSC_RDPS_RelativeHumidity_IsbL-0020_RLatLon0.09_PT063H.grib2 2026-05-03 02:59 742K
20260503T00Z_MSC_RDPS_RelativeHumidity_IsbL-0030_RLatLon0.09_PT063H.grib2 2026-05-03 02:59 601K
20260503T00Z_MSC_RDPS_RelativeHumidity_IsbL-0050_RLatLon0.09_PT063H.grib2 2026-05-03 02:59 361K
20260503T00Z_MSC_RDPS_RelativeHumidity_IsbL-0100_RLatLon0.09_PT063H.grib2 2026-05-03 02:59 279K
20260503T00Z_MSC_RDPS_RelativeHumidity_IsbL-0150_RLatLon0.09_PT063H.grib2 2026-05-03 02:59 414K
20260503T00Z_MSC_RDPS_RelativeHumidity_IsbL-0175_RLatLon0.09_PT063H.grib2 2026-05-03 02:59 479K
20260503T00Z_MSC_RDPS_RelativeHumidity_IsbL-0200_RLatLon0.09_PT063H.grib2 2026-05-03 02:59 554K
20260503T00Z_MSC_RDPS_RelativeHumidity_IsbL-0225_RLatLon0.09_PT063H.grib2 2026-05-03 02:59 616K
20260503T00Z_MSC_RDPS_RelativeHumidity_IsbL-0250_RLatLon0.09_PT063H.grib2 2026-05-03 02:59 675K
20260503T00Z_MSC_RDPS_RelativeHumidity_IsbL-0275_RLatLon0.09_PT063H.grib2 2026-05-03 02:59 698K
20260503T00Z_MSC_RDPS_RelativeHumidity_IsbL-0300_RLatLon0.09_PT063H.grib2 2026-05-03 02:59 742K
20260503T00Z_MSC_RDPS_RelativeHumidity_IsbL-0350_RLatLon0.09_PT063H.grib2 2026-05-03 02:59 769K
20260503T00Z_MSC_RDPS_RelativeHumidity_IsbL-0400_RLatLon0.09_PT063H.grib2 2026-05-03 02:59 784K
20260503T00Z_MSC_RDPS_RelativeHumidity_IsbL-0450_RLatLon0.09_PT063H.grib2 2026-05-03 02:59 789K
20260503T00Z_MSC_RDPS_RelativeHumidity_IsbL-0500_RLatLon0.09_PT063H.grib2 2026-05-03 02:59 790K
20260503T00Z_MSC_RDPS_RelativeHumidity_IsbL-0550_RLatLon0.09_PT063H.grib2 2026-05-03 02:59 806K
20260503T00Z_MSC_RDPS_RelativeHumidity_IsbL-0600_RLatLon0.09_PT063H.grib2 2026-05-03 02:59 831K
20260503T00Z_MSC_RDPS_RelativeHumidity_IsbL-0650_RLatLon0.09_PT063H.grib2 2026-05-03 02:59 849K
20260503T00Z_MSC_RDPS_RelativeHumidity_IsbL-0700_RLatLon0.09_PT063H.grib2 2026-05-03 02:59 867K
20260503T00Z_MSC_RDPS_RelativeHumidity_IsbL-0750_RLatLon0.09_PT063H.grib2 2026-05-03 02:59 919K
20260503T00Z_MSC_RDPS_RelativeHumidity_IsbL-0800_RLatLon0.09_PT063H.grib2 2026-05-03 02:59 1.0M
20260503T00Z_MSC_RDPS_RelativeHumidity_IsbL-0850_RLatLon0.09_PT063H.grib2 2026-05-03 02:59 1.0M
20260503T00Z_MSC_RDPS_RelativeHumidity_IsbL-0875_RLatLon0.09_PT063H.grib2 2026-05-03 02:59 1.1M
20260503T00Z_MSC_RDPS_RelativeHumidity_IsbL-0900_RLatLon0.09_PT063H.grib2 2026-05-03 02:59 1.1M
20260503T00Z_MSC_RDPS_RelativeHumidity_IsbL-0925_RLatLon0.09_PT063H.grib2 2026-05-03 02:59 1.1M
20260503T00Z_MSC_RDPS_RelativeHumidity_IsbL-0950_RLatLon0.09_PT063H.grib2 2026-05-03 02:59 1.1M
20260503T00Z_MSC_RDPS_RelativeHumidity_IsbL-0970_RLatLon0.09_PT063H.grib2 2026-05-03 02:59 1.1M
20260503T00Z_MSC_RDPS_RelativeHumidity_IsbL-0985_RLatLon0.09_PT063H.grib2 2026-05-03 02:59 1.1M
20260503T00Z_MSC_RDPS_RelativeHumidity_IsbL-1000_RLatLon0.09_PT063H.grib2 2026-05-03 02:59 1.0M
20260503T00Z_MSC_RDPS_RelativeHumidity_IsbL-1015_RLatLon0.09_PT063H.grib2 2026-05-03 02:59 1.0M
20260503T00Z_MSC_RDPS_Runoff-Accum_Sfc_RLatLon0.09_PT063H.grib2 2026-05-03 02:59 61K
20260503T00Z_MSC_RDPS_SWEATIndex_Sfc_RLatLon0.09_PT063H.grib2 2026-05-03 02:59 2.4M
20260503T00Z_MSC_RDPS_SeeingIndex_EAtm_RLatLon0.09_PT063H.grib2 2026-05-03 02:59 1.0M
20260503T00Z_MSC_RDPS_SensibleHeatNetFlux_Sfc_RLatLon0.09_PT063H.grib2 2026-05-03 02:59 362K
20260503T00Z_MSC_RDPS_ShowalterIndex_IsbL-0500_RLatLon0.09_PT063H.grib2 2026-05-03 02:59 2.6M
20260503T00Z_MSC_RDPS_SkyTransparencyIndex_EAtm_RLatLon0.09_PT063H.grib2 2026-05-03 02:59 699K
20260503T00Z_MSC_RDPS_Snow-Accum1h_Sfc_RLatLon0.09_PT063H.grib2 2026-05-03 02:59 480K
20260503T00Z_MSC_RDPS_Snow-Accum3h_Sfc_RLatLon0.09_PT063H.grib2 2026-05-03 02:59 431K
20260503T00Z_MSC_RDPS_Snow-Accum_Sfc_RLatLon0.09_PT063H.grib2 2026-05-03 02:59 774K
20260503T00Z_MSC_RDPS_SnowDensity_Sfc_RLatLon0.09_PT063H.grib2 2026-05-03 02:59 175K
20260503T00Z_MSC_RDPS_SnowDepth_Sfc_RLatLon0.09_PT063H.grib2 2026-05-03 02:59 657K
20260503T00Z_MSC_RDPS_SoilTemp_DBS-0to10cm_RLatLon0.09_PT063H.grib2 2026-05-03 02:59 243K
20260503T00Z_MSC_RDPS_SoilTemp_Sfc_RLatLon0.09_PT063H.grib2 2026-05-03 02:59 282K
20260503T00Z_MSC_RDPS_SoilVolumetricIceContent_Sfc_RLatLon0.09_PT063H.grib2 2026-05-03 02:59 153K
20260503T00Z_MSC_RDPS_SoilVolumetricWaterContent_DBS-0to10cm_RLatLon0.09_PT063H.grib2 2026-05-03 02:59 278K
20260503T00Z_MSC_RDPS_SoilVolumetricWaterContent_DBS-0to1cm_RLatLon0.09_PT063H.grib2 2026-05-03 02:59 342K
20260503T00Z_MSC_RDPS_SpecificHumidity_AGL-120m_RLatLon0.09_PT063H.grib2 2026-05-03 02:59 502K
20260503T00Z_MSC_RDPS_SpecificHumidity_AGL-2m_RLatLon0.09_PT063H.grib2 2026-05-03 02:59 673K
20260503T00Z_MSC_RDPS_SpecificHumidity_AGL-40m_RLatLon0.09_PT063H.grib2 2026-05-03 02:59 508K
20260503T00Z_MSC_RDPS_SpecificHumidity_AGL-80m_RLatLon0.09_PT063H.grib2 2026-05-03 02:59 504K
20260503T00Z_MSC_RDPS_SpecificHumidity_IsbL-0001_RLatLon0.09_PT063H.grib2 2026-05-03 02:59 376K
20260503T00Z_MSC_RDPS_SpecificHumidity_IsbL-0005_RLatLon0.09_PT063H.grib2 2026-05-03 02:59 365K
20260503T00Z_MSC_RDPS_SpecificHumidity_IsbL-0010_RLatLon0.09_PT063H.grib2 2026-05-03 02:59 398K
20260503T00Z_MSC_RDPS_SpecificHumidity_IsbL-0020_RLatLon0.09_PT063H.grib2 2026-05-03 02:59 377K
20260503T00Z_MSC_RDPS_SpecificHumidity_IsbL-0030_RLatLon0.09_PT063H.grib2 2026-05-03 02:59 370K
20260503T00Z_MSC_RDPS_SpecificHumidity_IsbL-0050_RLatLon0.09_PT063H.grib2 2026-05-03 02:59 448K
20260503T00Z_MSC_RDPS_SpecificHumidity_IsbL-0100_RLatLon0.09_PT063H.grib2 2026-05-03 02:59 415K
20260503T00Z_MSC_RDPS_SpecificHumidity_IsbL-0150_RLatLon0.09_PT063H.grib2 2026-05-03 02:59 448K
20260503T00Z_MSC_RDPS_SpecificHumidity_IsbL-0175_RLatLon0.09_PT063H.grib2 2026-05-03 02:59 439K
20260503T00Z_MSC_RDPS_SpecificHumidity_IsbL-0200_RLatLon0.09_PT063H.grib2 2026-05-03 02:59 455K
20260503T00Z_MSC_RDPS_SpecificHumidity_IsbL-0225_RLatLon0.09_PT063H.grib2 2026-05-03 02:59 454K
20260503T00Z_MSC_RDPS_SpecificHumidity_IsbL-0250_RLatLon0.09_PT063H.grib2 2026-05-03 02:59 554K
20260503T00Z_MSC_RDPS_SpecificHumidity_IsbL-0275_RLatLon0.09_PT063H.grib2 2026-05-03 02:59 470K
20260503T00Z_MSC_RDPS_SpecificHumidity_IsbL-0300_RLatLon0.09_PT063H.grib2 2026-05-03 02:59 542K
20260503T00Z_MSC_RDPS_SpecificHumidity_IsbL-0350_RLatLon0.09_PT063H.grib2 2026-05-03 02:59 539K
20260503T00Z_MSC_RDPS_SpecificHumidity_IsbL-0400_RLatLon0.09_PT063H.grib2 2026-05-03 02:59 519K
20260503T00Z_MSC_RDPS_SpecificHumidity_IsbL-0450_RLatLon0.09_PT063H.grib2 2026-05-03 02:59 569K
20260503T00Z_MSC_RDPS_SpecificHumidity_IsbL-0500_RLatLon0.09_PT063H.grib2 2026-05-03 02:59 500K
20260503T00Z_MSC_RDPS_SpecificHumidity_IsbL-0550_RLatLon0.09_PT063H.grib2 2026-05-03 02:59 554K
20260503T00Z_MSC_RDPS_SpecificHumidity_IsbL-0600_RLatLon0.09_PT063H.grib2 2026-05-03 02:59 619K
20260503T00Z_MSC_RDPS_SpecificHumidity_IsbL-0650_RLatLon0.09_PT063H.grib2 2026-05-03 02:59 537K
20260503T00Z_MSC_RDPS_SpecificHumidity_IsbL-0700_RLatLon0.09_PT063H.grib2 2026-05-03 02:59 585K
20260503T00Z_MSC_RDPS_SpecificHumidity_IsbL-0750_RLatLon0.09_PT063H.grib2 2026-05-03 02:59 643K
20260503T00Z_MSC_RDPS_SpecificHumidity_IsbL-0800_RLatLon0.09_PT063H.grib2 2026-05-03 02:59 728K
20260503T00Z_MSC_RDPS_SpecificHumidity_IsbL-0850_RLatLon0.09_PT063H.grib2 2026-05-03 02:59 811K
20260503T00Z_MSC_RDPS_SpecificHumidity_IsbL-0875_RLatLon0.09_PT063H.grib2 2026-05-03 02:59 838K
20260503T00Z_MSC_RDPS_SpecificHumidity_IsbL-0900_RLatLon0.09_PT063H.grib2 2026-05-03 02:59 850K
20260503T00Z_MSC_RDPS_SpecificHumidity_IsbL-0925_RLatLon0.09_PT063H.grib2 2026-05-03 02:59 851K
20260503T00Z_MSC_RDPS_SpecificHumidity_IsbL-0950_RLatLon0.09_PT063H.grib2 2026-05-03 02:59 850K
20260503T00Z_MSC_RDPS_SpecificHumidity_IsbL-0970_RLatLon0.09_PT063H.grib2 2026-05-03 02:59 706K
20260503T00Z_MSC_RDPS_SpecificHumidity_IsbL-0985_RLatLon0.09_PT063H.grib2 2026-05-03 02:59 703K
20260503T00Z_MSC_RDPS_SpecificHumidity_IsbL-1000_RLatLon0.09_PT063H.grib2 2026-05-03 02:59 697K
20260503T00Z_MSC_RDPS_SpecificHumidity_IsbL-1015_RLatLon0.09_PT063H.grib2 2026-05-03 02:59 690K
20260503T00Z_MSC_RDPS_SpecificHumidity_Sfc_RLatLon0.09_PT063H.grib2 2026-05-03 02:59 328K
20260503T00Z_MSC_RDPS_StormRelativeHelicity_EtaL-10000_RLatLon0.09_PT063H.grib2 2026-05-03 02:59 1.1M
20260503T00Z_MSC_RDPS_StormSeverityIndex_EtaL-10000_RLatLon0.09_PT063H.grib2 2026-05-03 02:59 1.1M
20260503T00Z_MSC_RDPS_Thickness_IsbL-0850to0700_RLatLon0.09_PT063H.grib2 2026-05-03 02:59 178K
20260503T00Z_MSC_RDPS_Thickness_IsbL-1000to0500_RLatLon0.09_PT063H.grib2 2026-05-03 02:59 200K
20260503T00Z_MSC_RDPS_Thickness_IsbL-1000to0850_RLatLon0.09_PT063H.grib2 2026-05-03 02:59 265K
20260503T00Z_MSC_RDPS_TotalCloudCover_Sfc_RLatLon0.09_PT063H.grib2 2026-05-03 02:59 662K
20260503T00Z_MSC_RDPS_TotalTotalsIndex_Sfc_RLatLon0.09_PT063H.grib2 2026-05-03 02:59 2.4M
20260503T00Z_MSC_RDPS_UVIndex-ClearSky_Sfc_RLatLon0.09_PT063H.grib2 2026-05-03 02:59 182K
20260503T00Z_MSC_RDPS_UVIndex_Sfc_RLatLon0.09_PT063H.grib2 2026-05-03 02:59 439K
20260503T00Z_MSC_RDPS_UpwardLongwaveRadiationFlux_NTAtm_RLatLon0.09_PT063H.grib2 2026-05-03 02:59 488K
20260503T00Z_MSC_RDPS_UpwardShortwaveRadiationFlux_NTAtm_RLatLon0.09_PT063H.grib2 2026-05-03 02:59 482K
20260503T00Z_MSC_RDPS_VerticalVelocity_IsbL-0250_RLatLon0.09_PT063H.grib2 2026-05-03 02:59 589K
20260503T00Z_MSC_RDPS_VerticalVelocity_IsbL-0500_RLatLon0.09_PT063H.grib2 2026-05-03 02:59 555K
20260503T00Z_MSC_RDPS_VerticalVelocity_IsbL-0700_RLatLon0.09_PT063H.grib2 2026-05-03 02:59 602K
20260503T00Z_MSC_RDPS_VerticalVelocity_IsbL-0850_RLatLon0.09_PT063H.grib2 2026-05-03 02:59 707K
20260503T00Z_MSC_RDPS_VerticalWindShear_EtaL-6500_RLatLon0.09_PT063H.grib2 2026-05-03 02:59 1.2M
20260503T00Z_MSC_RDPS_WindChill_Sfc_RLatLon0.09_PT063H.grib2 2026-05-03 02:59 1.2M
20260503T00Z_MSC_RDPS_WindDir_AGL-10m_RLatLon0.09_PT063H.grib2 2026-05-03 02:59 962K
20260503T00Z_MSC_RDPS_WindDir_AGL-120m_RLatLon0.09_PT063H.grib2 2026-05-03 02:59 604K
20260503T00Z_MSC_RDPS_WindDir_AGL-40m_RLatLon0.09_PT063H.grib2 2026-05-03 02:59 628K
20260503T00Z_MSC_RDPS_WindDir_AGL-80m_RLatLon0.09_PT063H.grib2 2026-05-03 02:59 614K
20260503T00Z_MSC_RDPS_WindDir_IsbL-0001_RLatLon0.09_PT063H.grib2 2026-05-03 02:59 316K
20260503T00Z_MSC_RDPS_WindDir_IsbL-0005_RLatLon0.09_PT063H.grib2 2026-05-03 02:59 391K
20260503T00Z_MSC_RDPS_WindDir_IsbL-0010_RLatLon0.09_PT063H.grib2 2026-05-03 02:59 405K
20260503T00Z_MSC_RDPS_WindDir_IsbL-0020_RLatLon0.09_PT063H.grib2 2026-05-03 02:59 416K
20260503T00Z_MSC_RDPS_WindDir_IsbL-0030_RLatLon0.09_PT063H.grib2 2026-05-03 02:59 427K
20260503T00Z_MSC_RDPS_WindDir_IsbL-0050_RLatLon0.09_PT063H.grib2 2026-05-03 02:59 428K
20260503T00Z_MSC_RDPS_WindDir_IsbL-0100_RLatLon0.09_PT063H.grib2 2026-05-03 02:59 425K
20260503T00Z_MSC_RDPS_WindDir_IsbL-0150_RLatLon0.09_PT063H.grib2 2026-05-03 02:59 406K
20260503T00Z_MSC_RDPS_WindDir_IsbL-0175_RLatLon0.09_PT063H.grib2 2026-05-03 02:59 435K
20260503T00Z_MSC_RDPS_WindDir_IsbL-0200_RLatLon0.09_PT063H.grib2 2026-05-03 02:59 450K
20260503T00Z_MSC_RDPS_WindDir_IsbL-0225_RLatLon0.09_PT063H.grib2 2026-05-03 02:59 449K
20260503T00Z_MSC_RDPS_WindDir_IsbL-0250_RLatLon0.09_PT063H.grib2 2026-05-03 02:59 449K
20260503T00Z_MSC_RDPS_WindDir_IsbL-0275_RLatLon0.09_PT063H.grib2 2026-05-03 02:59 471K
20260503T00Z_MSC_RDPS_WindDir_IsbL-0300_RLatLon0.09_PT063H.grib2 2026-05-03 02:59 473K
20260503T00Z_MSC_RDPS_WindDir_IsbL-0350_RLatLon0.09_PT063H.grib2 2026-05-03 02:59 496K
20260503T00Z_MSC_RDPS_WindDir_IsbL-0400_RLatLon0.09_PT063H.grib2 2026-05-03 02:59 512K
20260503T00Z_MSC_RDPS_WindDir_IsbL-0450_RLatLon0.09_PT063H.grib2 2026-05-03 02:59 530K
20260503T00Z_MSC_RDPS_WindDir_IsbL-0500_RLatLon0.09_PT063H.grib2 2026-05-03 02:59 540K
20260503T00Z_MSC_RDPS_WindDir_IsbL-0550_RLatLon0.09_PT063H.grib2 2026-05-03 02:59 550K
20260503T00Z_MSC_RDPS_WindDir_IsbL-0600_RLatLon0.09_PT063H.grib2 2026-05-03 02:59 571K
20260503T00Z_MSC_RDPS_WindDir_IsbL-0650_RLatLon0.09_PT063H.grib2 2026-05-03 02:59 615K
20260503T00Z_MSC_RDPS_WindDir_IsbL-0700_RLatLon0.09_PT063H.grib2 2026-05-03 02:59 664K
20260503T00Z_MSC_RDPS_WindDir_IsbL-0750_RLatLon0.09_PT063H.grib2 2026-05-03 02:59 711K
20260503T00Z_MSC_RDPS_WindDir_IsbL-0800_RLatLon0.09_PT063H.grib2 2026-05-03 02:59 776K
20260503T00Z_MSC_RDPS_WindDir_IsbL-0850_RLatLon0.09_PT063H.grib2 2026-05-03 02:59 860K
20260503T00Z_MSC_RDPS_WindDir_IsbL-0875_RLatLon0.09_PT063H.grib2 2026-05-03 02:59 891K
20260503T00Z_MSC_RDPS_WindDir_IsbL-0900_RLatLon0.09_PT063H.grib2 2026-05-03 02:59 906K
20260503T00Z_MSC_RDPS_WindDir_IsbL-0925_RLatLon0.09_PT063H.grib2 2026-05-03 02:59 912K
20260503T00Z_MSC_RDPS_WindDir_IsbL-0950_RLatLon0.09_PT063H.grib2 2026-05-03 02:59 907K
20260503T00Z_MSC_RDPS_WindDir_IsbL-0970_RLatLon0.09_PT063H.grib2 2026-05-03 02:59 911K
20260503T00Z_MSC_RDPS_WindDir_IsbL-0985_RLatLon0.09_PT063H.grib2 2026-05-03 02:59 920K
20260503T00Z_MSC_RDPS_WindDir_IsbL-1000_RLatLon0.09_PT063H.grib2 2026-05-03 02:59 934K
20260503T00Z_MSC_RDPS_WindDir_IsbL-1015_RLatLon0.09_PT063H.grib2 2026-05-03 02:59 951K
20260503T00Z_MSC_RDPS_WindGust-Max_AGL-10m_RLatLon0.09_PT063H.grib2 2026-05-03 02:59 954K
20260503T00Z_MSC_RDPS_WindGust-Min_AGL-10m_RLatLon0.09_PT063H.grib2 2026-05-03 02:59 1.0M
20260503T00Z_MSC_RDPS_WindGust_AGL-10m_RLatLon0.09_PT063H.grib2 2026-05-03 02:59 1.0M
20260503T00Z_MSC_RDPS_WindSpeed_AGL-10m_RLatLon0.09_PT063H.grib2 2026-05-03 02:59 857K
20260503T00Z_MSC_RDPS_WindSpeed_AGL-120m_RLatLon0.09_PT063H.grib2 2026-05-03 02:59 548K
20260503T00Z_MSC_RDPS_WindSpeed_AGL-40m_RLatLon0.09_PT063H.grib2 2026-05-03 02:59 552K
20260503T00Z_MSC_RDPS_WindSpeed_AGL-80m_RLatLon0.09_PT063H.grib2 2026-05-03 02:59 549K
20260503T00Z_MSC_RDPS_WindSpeed_IsbL-0001_RLatLon0.09_PT063H.grib2 2026-05-03 02:59 257K
20260503T00Z_MSC_RDPS_WindSpeed_IsbL-0005_RLatLon0.09_PT063H.grib2 2026-05-03 02:59 387K
20260503T00Z_MSC_RDPS_WindSpeed_IsbL-0010_RLatLon0.09_PT063H.grib2 2026-05-03 02:59 402K
20260503T00Z_MSC_RDPS_WindSpeed_IsbL-0020_RLatLon0.09_PT063H.grib2 2026-05-03 02:59 423K
20260503T00Z_MSC_RDPS_WindSpeed_IsbL-0030_RLatLon0.09_PT063H.grib2 2026-05-03 02:59 323K
20260503T00Z_MSC_RDPS_WindSpeed_IsbL-0050_RLatLon0.09_PT063H.grib2 2026-05-03 02:59 352K
20260503T00Z_MSC_RDPS_WindSpeed_IsbL-0100_RLatLon0.09_PT063H.grib2 2026-05-03 02:59 480K
20260503T00Z_MSC_RDPS_WindSpeed_IsbL-0150_RLatLon0.09_PT063H.grib2 2026-05-03 02:59 382K
20260503T00Z_MSC_RDPS_WindSpeed_IsbL-0175_RLatLon0.09_PT063H.grib2 2026-05-03 02:59 428K
20260503T00Z_MSC_RDPS_WindSpeed_IsbL-0200_RLatLon0.09_PT063H.grib2 2026-05-03 02:59 440K
20260503T00Z_MSC_RDPS_WindSpeed_IsbL-0225_RLatLon0.09_PT063H.grib2 2026-05-03 02:59 445K
20260503T00Z_MSC_RDPS_WindSpeed_IsbL-0250_RLatLon0.09_PT063H.grib2 2026-05-03 02:59 447K
20260503T00Z_MSC_RDPS_WindSpeed_IsbL-0275_RLatLon0.09_PT063H.grib2 2026-05-03 02:59 464K
20260503T00Z_MSC_RDPS_WindSpeed_IsbL-0300_RLatLon0.09_PT063H.grib2 2026-05-03 02:59 464K
20260503T00Z_MSC_RDPS_WindSpeed_IsbL-0350_RLatLon0.09_PT063H.grib2 2026-05-03 02:59 475K
20260503T00Z_MSC_RDPS_WindSpeed_IsbL-0400_RLatLon0.09_PT063H.grib2 2026-05-03 02:59 478K
20260503T00Z_MSC_RDPS_WindSpeed_IsbL-0450_RLatLon0.09_PT063H.grib2 2026-05-03 02:59 462K
20260503T00Z_MSC_RDPS_WindSpeed_IsbL-0500_RLatLon0.09_PT063H.grib2 2026-05-03 02:59 464K
20260503T00Z_MSC_RDPS_WindSpeed_IsbL-0550_RLatLon0.09_PT063H.grib2 2026-05-03 02:59 462K
20260503T00Z_MSC_RDPS_WindSpeed_IsbL-0600_RLatLon0.09_PT063H.grib2 2026-05-03 02:59 588K
20260503T00Z_MSC_RDPS_WindSpeed_IsbL-0650_RLatLon0.09_PT063H.grib2 2026-05-03 02:59 608K
20260503T00Z_MSC_RDPS_WindSpeed_IsbL-0700_RLatLon0.09_PT063H.grib2 2026-05-03 02:59 674K
20260503T00Z_MSC_RDPS_WindSpeed_IsbL-0750_RLatLon0.09_PT063H.grib2 2026-05-03 02:59 662K
20260503T00Z_MSC_RDPS_WindSpeed_IsbL-0800_RLatLon0.09_PT063H.grib2 2026-05-03 02:59 761K
20260503T00Z_MSC_RDPS_WindSpeed_IsbL-0850_RLatLon0.09_PT063H.grib2 2026-05-03 02:59 832K
20260503T00Z_MSC_RDPS_WindSpeed_IsbL-0875_RLatLon0.09_PT063H.grib2 2026-05-03 02:59 857K
20260503T00Z_MSC_RDPS_WindSpeed_IsbL-0900_RLatLon0.09_PT063H.grib2 2026-05-03 02:59 871K
20260503T00Z_MSC_RDPS_WindSpeed_IsbL-0925_RLatLon0.09_PT063H.grib2 2026-05-03 02:59 833K
20260503T00Z_MSC_RDPS_WindSpeed_IsbL-0950_RLatLon0.09_PT063H.grib2 2026-05-03 02:59 878K
20260503T00Z_MSC_RDPS_WindSpeed_IsbL-0970_RLatLon0.09_PT063H.grib2 2026-05-03 02:59 875K
20260503T00Z_MSC_RDPS_WindSpeed_IsbL-0985_RLatLon0.09_PT063H.grib2 2026-05-03 02:59 870K
20260503T00Z_MSC_RDPS_WindSpeed_IsbL-1000_RLatLon0.09_PT063H.grib2 2026-05-03 02:59 863K
20260503T00Z_MSC_RDPS_WindSpeed_IsbL-1015_RLatLon0.09_PT063H.grib2 2026-05-03 02:59 856K
20260503T00Z_MSC_RDPS_WindU_AGL-10m_RLatLon0.09_PT063H.grib2 2026-05-03 02:59 439K
20260503T00Z_MSC_RDPS_WindU_AGL-120m_RLatLon0.09_PT063H.grib2 2026-05-03 02:59 424K
20260503T00Z_MSC_RDPS_WindU_AGL-40m_RLatLon0.09_PT063H.grib2 2026-05-03 02:59 544K
20260503T00Z_MSC_RDPS_WindU_AGL-80m_RLatLon0.09_PT063H.grib2 2026-05-03 02:59 424K
20260503T00Z_MSC_RDPS_WindU_IsbL-0001_RLatLon0.09_PT063H.grib2 2026-05-03 02:59 296K
20260503T00Z_MSC_RDPS_WindU_IsbL-0005_RLatLon0.09_PT063H.grib2 2026-05-03 02:59 285K
20260503T00Z_MSC_RDPS_WindU_IsbL-0010_RLatLon0.09_PT063H.grib2 2026-05-03 02:59 297K
20260503T00Z_MSC_RDPS_WindU_IsbL-0020_RLatLon0.09_PT063H.grib2 2026-05-03 02:59 353K
20260503T00Z_MSC_RDPS_WindU_IsbL-0030_RLatLon0.09_PT063H.grib2 2026-05-03 02:59 314K
20260503T00Z_MSC_RDPS_WindU_IsbL-0050_RLatLon0.09_PT063H.grib2 2026-05-03 02:59 381K
20260503T00Z_MSC_RDPS_WindU_IsbL-0100_RLatLon0.09_PT063H.grib2 2026-05-03 02:59 337K
20260503T00Z_MSC_RDPS_WindU_IsbL-0150_RLatLon0.09_PT063H.grib2 2026-05-03 02:59 396K
20260503T00Z_MSC_RDPS_WindU_IsbL-0175_RLatLon0.09_PT063H.grib2 2026-05-03 02:59 420K
20260503T00Z_MSC_RDPS_WindU_IsbL-0200_RLatLon0.09_PT063H.grib2 2026-05-03 02:59 335K
20260503T00Z_MSC_RDPS_WindU_IsbL-0225_RLatLon0.09_PT063H.grib2 2026-05-03 02:59 338K
20260503T00Z_MSC_RDPS_WindU_IsbL-0250_RLatLon0.09_PT063H.grib2 2026-05-03 02:59 338K
20260503T00Z_MSC_RDPS_WindU_IsbL-0275_RLatLon0.09_PT063H.grib2 2026-05-03 02:59 353K
20260503T00Z_MSC_RDPS_WindU_IsbL-0300_RLatLon0.09_PT063H.grib2 2026-05-03 02:59 352K
20260503T00Z_MSC_RDPS_WindU_IsbL-0350_RLatLon0.09_PT063H.grib2 2026-05-03 02:59 361K
20260503T00Z_MSC_RDPS_WindU_IsbL-0400_RLatLon0.09_PT063H.grib2 2026-05-03 02:59 363K
20260503T00Z_MSC_RDPS_WindU_IsbL-0450_RLatLon0.09_PT063H.grib2 2026-05-03 02:59 467K
20260503T00Z_MSC_RDPS_WindU_IsbL-0500_RLatLon0.09_PT063H.grib2 2026-05-03 02:59 469K
20260503T00Z_MSC_RDPS_WindU_IsbL-0550_RLatLon0.09_PT063H.grib2 2026-05-03 02:59 468K
20260503T00Z_MSC_RDPS_WindU_IsbL-0600_RLatLon0.09_PT063H.grib2 2026-05-03 02:59 476K
20260503T00Z_MSC_RDPS_WindU_IsbL-0650_RLatLon0.09_PT063H.grib2 2026-05-03 02:59 494K
20260503T00Z_MSC_RDPS_WindU_IsbL-0700_RLatLon0.09_PT063H.grib2 2026-05-03 02:59 500K
20260503T00Z_MSC_RDPS_WindU_IsbL-0750_RLatLon0.09_PT063H.grib2 2026-05-03 02:59 529K
20260503T00Z_MSC_RDPS_WindU_IsbL-0800_RLatLon0.09_PT063H.grib2 2026-05-03 02:59 576K
20260503T00Z_MSC_RDPS_WindU_IsbL-0850_RLatLon0.09_PT063H.grib2 2026-05-03 02:59 645K
20260503T00Z_MSC_RDPS_WindU_IsbL-0875_RLatLon0.09_PT063H.grib2 2026-05-03 02:59 665K
20260503T00Z_MSC_RDPS_WindU_IsbL-0900_RLatLon0.09_PT063H.grib2 2026-05-03 02:59 675K
20260503T00Z_MSC_RDPS_WindU_IsbL-0925_RLatLon0.09_PT063H.grib2 2026-05-03 02:59 679K
20260503T00Z_MSC_RDPS_WindU_IsbL-0950_RLatLon0.09_PT063H.grib2 2026-05-03 02:59 667K
20260503T00Z_MSC_RDPS_WindU_IsbL-0970_RLatLon0.09_PT063H.grib2 2026-05-03 02:59 663K
20260503T00Z_MSC_RDPS_WindU_IsbL-0985_RLatLon0.09_PT063H.grib2 2026-05-03 02:59 658K
20260503T00Z_MSC_RDPS_WindU_IsbL-1000_RLatLon0.09_PT063H.grib2 2026-05-03 02:59 796K
20260503T00Z_MSC_RDPS_WindU_IsbL-1015_RLatLon0.09_PT063H.grib2 2026-05-03 02:59 792K
20260503T00Z_MSC_RDPS_WindV_AGL-10m_RLatLon0.09_PT063H.grib2 2026-05-03 02:59 440K
20260503T00Z_MSC_RDPS_WindV_AGL-120m_RLatLon0.09_PT063H.grib2 2026-05-03 02:59 424K
20260503T00Z_MSC_RDPS_WindV_AGL-40m_RLatLon0.09_PT063H.grib2 2026-05-03 02:59 546K
20260503T00Z_MSC_RDPS_WindV_AGL-80m_RLatLon0.09_PT063H.grib2 2026-05-03 02:59 425K
20260503T00Z_MSC_RDPS_WindV_IsbL-0001_RLatLon0.09_PT063H.grib2 2026-05-03 02:59 251K
20260503T00Z_MSC_RDPS_WindV_IsbL-0005_RLatLon0.09_PT063H.grib2 2026-05-03 02:59 290K
20260503T00Z_MSC_RDPS_WindV_IsbL-0010_RLatLon0.09_PT063H.grib2 2026-05-03 02:59 302K
20260503T00Z_MSC_RDPS_WindV_IsbL-0020_RLatLon0.09_PT063H.grib2 2026-05-03 02:59 317K
20260503T00Z_MSC_RDPS_WindV_IsbL-0030_RLatLon0.09_PT063H.grib2 2026-05-03 02:59 355K
20260503T00Z_MSC_RDPS_WindV_IsbL-0050_RLatLon0.09_PT063H.grib2 2026-05-03 02:59 347K
20260503T00Z_MSC_RDPS_WindV_IsbL-0100_RLatLon0.09_PT063H.grib2 2026-05-03 02:59 336K
20260503T00Z_MSC_RDPS_WindV_IsbL-0150_RLatLon0.09_PT063H.grib2 2026-05-03 02:59 394K
20260503T00Z_MSC_RDPS_WindV_IsbL-0175_RLatLon0.09_PT063H.grib2 2026-05-03 02:59 323K
20260503T00Z_MSC_RDPS_WindV_IsbL-0200_RLatLon0.09_PT063H.grib2 2026-05-03 02:59 333K
20260503T00Z_MSC_RDPS_WindV_IsbL-0225_RLatLon0.09_PT063H.grib2 2026-05-03 02:59 363K
20260503T00Z_MSC_RDPS_WindV_IsbL-0250_RLatLon0.09_PT063H.grib2 2026-05-03 02:59 364K
20260503T00Z_MSC_RDPS_WindV_IsbL-0275_RLatLon0.09_PT063H.grib2 2026-05-03 02:59 378K
20260503T00Z_MSC_RDPS_WindV_IsbL-0300_RLatLon0.09_PT063H.grib2 2026-05-03 02:59 376K
20260503T00Z_MSC_RDPS_WindV_IsbL-0350_RLatLon0.09_PT063H.grib2 2026-05-03 02:59 360K
20260503T00Z_MSC_RDPS_WindV_IsbL-0400_RLatLon0.09_PT063H.grib2 2026-05-03 02:59 362K
20260503T00Z_MSC_RDPS_WindV_IsbL-0450_RLatLon0.09_PT063H.grib2 2026-05-03 02:59 364K
20260503T00Z_MSC_RDPS_WindV_IsbL-0500_RLatLon0.09_PT063H.grib2 2026-05-03 02:59 468K
20260503T00Z_MSC_RDPS_WindV_IsbL-0550_RLatLon0.09_PT063H.grib2 2026-05-03 02:59 468K
20260503T00Z_MSC_RDPS_WindV_IsbL-0600_RLatLon0.09_PT063H.grib2 2026-05-03 02:59 474K
20260503T00Z_MSC_RDPS_WindV_IsbL-0650_RLatLon0.09_PT063H.grib2 2026-05-03 02:59 475K
20260503T00Z_MSC_RDPS_WindV_IsbL-0700_RLatLon0.09_PT063H.grib2 2026-05-03 02:59 496K
20260503T00Z_MSC_RDPS_WindV_IsbL-0750_RLatLon0.09_PT063H.grib2 2026-05-03 02:59 523K
20260503T00Z_MSC_RDPS_WindV_IsbL-0800_RLatLon0.09_PT063H.grib2 2026-05-03 02:59 582K
20260503T00Z_MSC_RDPS_WindV_IsbL-0850_RLatLon0.09_PT063H.grib2 2026-05-03 02:59 632K
20260503T00Z_MSC_RDPS_WindV_IsbL-0875_RLatLon0.09_PT063H.grib2 2026-05-03 02:59 655K
20260503T00Z_MSC_RDPS_WindV_IsbL-0900_RLatLon0.09_PT063H.grib2 2026-05-03 02:59 666K
20260503T00Z_MSC_RDPS_WindV_IsbL-0925_RLatLon0.09_PT063H.grib2 2026-05-03 02:59 672K
20260503T00Z_MSC_RDPS_WindV_IsbL-0950_RLatLon0.09_PT063H.grib2 2026-05-03 02:59 667K
20260503T00Z_MSC_RDPS_WindV_IsbL-0970_RLatLon0.09_PT063H.grib2 2026-05-03 02:59 664K
20260503T00Z_MSC_RDPS_WindV_IsbL-0985_RLatLon0.09_PT063H.grib2 2026-05-03 02:59 662K
20260503T00Z_MSC_RDPS_WindV_IsbL-1000_RLatLon0.09_PT063H.grib2 2026-05-03 02:59 798K
20260503T00Z_MSC_RDPS_WindV_IsbL-1015_RLatLon0.09_PT063H.grib2 2026-05-03 02:59 793K